Location: *
(37.5636°S, 108.4858°W)
Time: 10:59:57
(UTC+00:00)

Daily predictions for brighter satellites

Satellite Brightness Start Highest point End
(mag) Time Altitude Azimuth Time Altitude Azimuth Time Altitude Azimuth
Cosmos 1980 Rocket 2.0 12:08:56 77° WNW 12:09:17 81° WSW 12:14:58 10° SSE
Cosmos 990 Rocket 4.2 12:10:07 43° S 12:11:48 70° ESE 12:17:03 10° NNE
CZ-3 Stage 3 3.8 12:14:38 32° N 12:14:38 32° N 12:17:12 10° ENE
Cosmos 1763 Rocket 3.5 12:15:25 67° SSW 12:15:25 67° SSW 12:20:14 10° SSE
NOSS 3-1 (A) 3.9 12:12:32 28° S 12:15:29 52° SE 12:20:45 10° NE
PAYLOAD B 4.1 12:12:47 10° NNE 12:18:18 84° WNW 12:20:56 33° SSW
Aureole 3 Rocket 4.4 12:16:40 15° SSE 12:19:36 39° E 12:24:20 10° NNE
Okean O Rocket 2.0 12:15:31 10° NNE 12:19:55 62° ESE 12:22:23 26° S
Cosmos 2026 Rocket 3.9 12:14:27 10° N 12:20:35 89° E 12:26:53 10° S
Cosmos 1758 3.8 12:23:45 49° N 12:23:45 49° N 12:26:48 10° N
USA 234 4.5 12:18:19 10° E 12:24:01 33° SSE 12:28:09 17° SSW
Cosmos 1898 Rocket 3.4 12:25:05 35° SSW 12:27:29 89° WNW 12:32:50 10° NNE
Orbus 7S? 3.3 12:29:38 59° ENE 12:29:38 59° ENE 12:33:37 10° SE
Cosmos 2278 3.9 12:32:06 45° WSW 12:32:06 45° WSW 12:37:26 10° S
Radarsat Rocket 4.3 12:24:43 10° NNE 12:32:16 86° WNW 12:38:58 10° SSW
Cosmos 1092 Rocket 4.0 12:27:23 10° NNW 12:33:26 53° W 12:39:31 10° S
SL-16 R/B 3.3 12:28:32 10° N 12:33:53 44° ENE 12:39:17 10° SE
Cosmos 1570 Rocket 3.9 12:31:05 10° NNW 12:36:27 82° WSW 12:41:54 10° SSE
Cosmos 1697 Rocket 4.2 12:39:20 20° SSW 12:39:20 20° SSW 12:41:40 10° S
Cosmos 540 Rocket 3.4 12:33:16 10° NNW 12:38:28 88° WSW 12:43:44 10° SSE
CZ-4B R/B 3.1 12:37:14 10° N 12:42:46 72° WNW 12:48:28 10° SSW
Cosmos 841 Rocket 3.4 12:38:28 10° NNW 12:43:44 76° WSW 12:49:05 10° SSE
SMAP 3.1 12:40:02 10° NNE 12:44:43 83° ESE 12:49:27 10° S
Timation 1 Rocket 4.3 12:42:30 16° SSW 12:47:30 88° ESE 12:53:31 10° NNE
KORONAS-FOTON 4.4 12:44:22 10° N 12:48:06 59° E 12:51:55 10° SSE
ADEOS Rocket 3.1 12:47:28 10° SSE 12:53:00 68° ENE 12:58:42 10° N
CZ-4 R/B 4.1 12:50:36 10° ENE 12:53:36 19° ESE 12:56:38 10° SSE
Cosmos 1655 Rocket 4.3 12:50:00 10° N 12:56:13 72° E 13:02:29 10° S
Cosmos 1937 Rocket 3.4 12:55:11 17° SSW 12:59:08 64° WNW 13:04:15 10° N
Cosmos 1626 4.2 12:56:31 10° NNE 12:59:48 30° E 13:03:07 10° SSE
Cosmos 2228 4.3 12:57:00 10° S 13:01:07 41° E 13:05:10 10° NNE
Cosmos 1818 4.0 12:58:48 10° NNW 13:04:09 65° ENE 13:09:31 10° SE
Cosmos 1953 2.5 13:02:52 17° SSW 13:05:47 49° W 13:09:40 10° NNW
ASTEX 1 3.6 13:01:47 10° NNE 13:06:40 76° E 13:11:39 10° S
DELTA 2 R/B (1) 3.8 13:03:16 14° WNW 13:08:08 70° NNE 13:13:46 10° ESE
Cosmos 1689 Rocket 2.4 13:06:05 10° S 13:09:01 42° WSW 13:11:54 10° NNW
YAOGAN 6 2.7 13:07:28 10° N 13:10:59 51° W 13:13:58 14° SSW
Meteor 2-5 Rocket 4.0 13:06:51 10° N 13:12:25 70° E 13:17:59 10° SSE
Cosmos 1908 3.3 13:08:57 10° S 13:12:51 82° E 13:16:42 10° N
Cosmos 2227 4.2 13:07:14 10° SSW 13:12:56 87° WNW 13:18:37 10° NNE
Cosmos 2322 Rocket 2.3 13:08:18 10° NNW 13:14:01 82° ENE 13:19:47 10° SSE
AQUARIUS 4.3 13:10:03 10° N 13:14:26 51° W 13:18:54 10° SSW
IRS-1C Rocket 4.2 13:09:29 10° NNE 13:14:46 82° ESE 13:20:07 10° SSW
BREEZE-M DEB (TANK) 3.9 13:12:48 18° SW 13:15:49 61° SE 13:29:04 10° ENE
Meteor 1-16 Rocket 4.2 13:10:12 10° SSW 13:15:57 63° W 13:21:27 10° N
Cosmos 1892 Rocket 4.4 13:11:35 10° N 13:15:58 55° E 13:20:22 10° SSE
SJ 16-02 2.9 13:16:50 17° WNW 13:16:50 17° WNW 13:19:21 10° NW
OAO 2 Rocket 3.6 13:14:01 18° W 13:17:46 65° N 13:22:46 10° ENE
NOSS 2-3 (E) 4.4 13:13:25 14° SW 13:18:41 52° WNW 13:23:30 10° N
COSMO-SKYMED 1 2.7 13:14:59 10° SSE 13:19:25 80° E 13:23:47 10° N
Meteor 2-8 Rocket 4.4 13:14:33 10° SSW 13:20:42 71° W 13:26:48 10° N
Hubble Space Telescope 3.0 13:20:37 10° NW 13:23:43 20° N 13:26:50 10° ENE
YAOGAN 1 4.2 13:22:20 10° NE 13:26:19 36° ESE 13:30:20 10° S
Aureole 3 3.2 13:22:25 10° S 13:26:53 84° W 13:30:24 10° N
Cosmos 1553 Rocket 4.2 13:20:51 10° SSW 13:27:08 55° W 13:33:15 10° NNW
OAO 3 Rocket 4.5 13:25:08 13° W 13:28:47 30° NNW 13:32:59 10° NE
ATLAS CENTAUR R/B 4.2 13:26:14 10° S 13:29:01 15° SE 13:31:48 10° ESE
Cosmos 2263 Rocket 2.2 13:27:22 10° SSW 13:33:05 67° WNW 13:38:42 10° N
Envisat 3.8 13:29:03 10° NNW 13:33:32 30° W 13:38:03 10° SW
USA 267 4.1 13:28:17 10° SSE 13:33:55 31° SSW 13:39:33 10° W
NOSS 3-1 (C) 4.5 13:31:32 14° WSW 13:34:40 21° WNW 13:38:33 10° NNW
Cosmos 1356 Rocket 4.3 13:31:17 10° S 13:35:24 53° E 13:39:31 10° NNE
Cosmos 1726 3.7 13:34:43 13° SW 13:36:28 18° W 13:39:01 10° NW
Delta 2 Rocket 4.5 13:32:25 12° W 13:36:35 46° NNW 13:41:39 10° NE
Cosmos 1674 3.6 13:35:02 10° NW 13:38:14 26° WSW 13:41:28 10° SSW
Helios 1A Rocket 3.2 13:34:30 10° N 13:38:27 46° W 13:42:27 10° SSW
Cosmos 2058 Rocket 3.9 13:34:25 10° S 13:38:49 55° E 13:43:11 10° NNE
S3M 4.0 13:34:16 10° SSW 13:40:20 59° W 13:46:20 10° N
Cosmos 2298 Rocket 4.0 13:35:27 10° SSW 13:40:49 80° WNW 13:46:08 10° NNE
NOAA 11 4.2 13:36:28 10° N 13:41:59 77° WNW 13:47:35 10° SSW
Cosmos 2285 Rocket 4.1 13:36:05 10° SSW 13:42:32 67° WNW 13:48:53 10° N
Cosmos 2237 4.4 13:38:19 10° NNW 13:44:00 80° ENE 13:49:45 10° SSE
ATLAS 5 CENTAUR R/B 2.7 13:37:38 10° NW 13:44:48 63° SW 13:51:31 10° SSE
Cosmos 2360 Rocket 2.5 13:39:34 10° NNW 13:45:12 77° ENE 13:50:54 10° SSE
Cosmos 1606 Rocket 3.7 13:42:57 10° SSW 13:47:14 54° W 13:51:28 10° N
Cosmos 489 Rocket 4.5 13:42:01 10° NNW 13:48:16 68° WSW 13:54:31 10° SSE
H-2A R/B 3.9 13:46:32 10° NE 13:50:44 29° ESE 13:55:02 10° S
USA 116 3.5 13:49:58 10° SSE 13:53:12 75° ENE 13:56:35 10° N
Atlas Centaur 2 3.8 13:45:52 10° W 13:53:33 40° NNW 14:00:16 10° NE
Cosmos 1461 4.0 13:50:30 10° WSW 13:53:38 23° WNW 13:56:45 10° NNW
Cosmos 1980 Rocket 3.9 13:52:08 10° WSW 13:54:11 12° SW 13:56:13 10° SSW
Okean O Rocket 3.6 13:55:33 10° WNW 13:56:39 11° W 13:57:45 10° WSW
